Total_Precipitation_Accumulation
0.00 0.00 0.00 0.00 0.00 0.04 0.09 0.22 0.31 0.25 0.14 0.15 0.08 0.16 0.28 0.24 0.18 0.19 0.17 0.13 0.13 0.10 0.05 0.04 0.04 0.02 0.00 0.01 0.09 0.08 0.11 0.11 0.06 0.05 0.07 0.02 0.01 0.02 0.05 0.04 0.02 0.06 0.21
0.02 0.01 0.00 0.00 0.00 0.00 0.05 0.10 0.22 0.35 0.29 0.16 0.25 0.31 0.37 0.32 0.35 0.22 0.33 0.30 0.24 0.20 0.14 0.15 0.14 0.04 0.11 0.07 0.14 0.14 0.08 0.06 0.07 0.11 0.08 0.02 0.03 0.08 0.12 0.14 0.04 0.09 0.16
0.08 0.07 0.03 0.01 0.01 0.05 0.06 0.06 0.14 0.22 0.15 0.14 0.30 0.32 0.34 0.36 0.30 0.38 0.58 0.40 0.32 0.26 0.18 0.19 0.12 0.13 0.23 0.21 0.24 0.27 0.09 0.15 0.26 0.19 0.06 0.05 0.19 0.35 0.55 0.39 0.18 0.25 0.31
0.30 0.15 0.12 0.06 0.05 0.07 0.07 0.08 0.13 0.17 0.16 0.14 0.16 0.17 0.19 0.22 0.17 0.32 0.43 0.57 0.43 0.22 0.53 0.37 0.35 0.47 0.47 0.36 0.32 0.45 0.37 0.30 0.31 0.19 0.22 0.13 0.13 0.31 0.55 0.19 0.21 0.42 0.46
0.63 0.51 0.39 0.33 0.22 0.25 0.19 0.20 0.18 0.16 0.23 0.25 0.28 0.24 0.27 0.19 0.12 0.09 0.13 0.17 0.24 0.22 0.27 0.49 0.47 0.58 0.62 0.44 0.37 0.35 0.34 0.25 0.25 0.24 0.30 0.25 0.24 0.26 0.24 0.11 0.11 0.21 0.33
1.37 0.88 0.83 0.67 0.55 0.36 0.26 0.33 0.31 0.28 0.32 0.30 0.21 0.23 0.30 0.17 0.12 0.11 0.11 0.09 0.10 0.10 0.09 0.16 0.30 0.33 0.23 0.14 0.07 0.08 0.18 0.33 0.41 0.32 0.32 0.30 0.30 0.31 0.22 0.14 0.15 0.29 0.37
2.35 1.53 0.89 0.78 0.62 0.51 0.43 0.56 0.51 0.53 0.55 0.53 0.52 0.51 0.30 0.17 0.24 0.16 0.09 0.04 0.04 0.16 0.25 0.42 0.45 0.35 0.38 0.18 0.06 0.00 0.01 0.03 0.06 0.11 0.20 0.22 0.19 0.18 0.04 0.07 0.16 0.24 0.34
2.16 2.15 1.52 1.10 0.97 0.89 0.69 0.55 0.51 0.54 0.63 0.71 0.53 0.37 0.31 0.21 0.28 0.14 0.07 0.03 0.03 0.14 0.20 0.22 0.31 0.31 0.32 0.16 0.12 0.06 0.00 0.00 0.00 0.00 0.00 0.05 0.00 0.00 0.00 0.01 0.02 0.07 0.14
1.46 2.65 2.38 1.18 0.95 0.92 0.86 0.90 0.84 0.73 0.66 0.54 0.37 0.29 0.24 0.15 0.24 0.17 0.15 0.12 0.08 0.08 0.03 0.03 0.06 0.07 0.05 0.01 0.00 0.00 0.01 0.00 0.00 0.01 0.01 0.00 0.00 0.01 0.00 0.00 0.01 0.06 0.20
1.29 1.46 2.55 2.65 1.60 1.23 1.41 1.50 1.37 1.24 0.94 0.66 0.59 0.45 0.37 0.25 0.28 0.24 0.18 0.09 0.09 0.12 0.07 0.04 0.11 0.06 0.05 0.02 0.01 0.05 0.16 0.13 0.12 0.08 0.06 0.01 0.00 0.01 0.00 0.00 0.00 0.00 0.01
1.64 1.80 1.60 1.85 2.32 2.06 2.00 2.00 1.79 1.67 1.62 1.29 1.12 0.85 0.68 0.54 0.44 0.39 0.21 0.11 0.12 0.20 0.23 0.09 0.03 0.03 0.01 0.00 0.00 0.01 0.04 0.06 0.08 0.05 0.03 0.02 0.01 0.01 0.02 0.01 0.00 0.00 0.00
2.99 2.50 2.98 2.59 2.27 2.29 2.23 2.57 2.65 2.12 1.79 1.46 1.38 1.25 1.04 0.95 0.89 0.69 0.50 0.22 0.20 0.32 0.22 0.09 0.05 0.02 0.00 0.00 0.00 0.01 0.01 0.01 0.01 0.00 0.01 0.02 0.04 0.03 0.03 0.00 0.00 0.00 0.00
1.57 2.30 3.44 4.18 3.04 2.07 1.75 1.54 1.63 1.64 1.10 0.94 1.02 1.15 1.19 1.01 0.82 0.58 0.33 0.19 0.16 0.25 0.11 0.05 0.02 0.02 0.01 0.01 0.01 0.01 0.01 0.01 0.01 0.01 0.01 0.01 0.01 0.02 0.02 0.01 0.00 0.00 0.00
1.57 1.58 1.78 2.00 1.59 1.22 0.82 0.78 0.82 0.92 0.94 1.00 0.89 0.71 0.66 0.59 0.45 0.28 0.15 0.06 0.02 0.00 0.00 0.00 0.00 0.00 0.00 0.00 0.00 0.00 0.00 0.00 0.00 0.00 0.00 0.00 0.00 0.00 0.00 0.00 0.00 0.00 0.00
0.53 0.40 0.33 0.38 0.53 0.51 0.43 0.37 0.34 0.38 0.42 0.59 0.67 0.37 0.24 0.13 0.06 0.03 0.01 0.00 0.00 0.00 0.00 0.00 0.00 0.00 0.00 0.00 0.00 0.00 0.00 0.00 0.00 0.00 0.00 0.00 0.00 0.00 0.00 0.00 0.00 0.00 0.00
0.14 0.08 0.15 0.22 0.16 0.14 0.09 0.08 0.10 0.11 0.07 0.06 0.07 0.06 0.04 0.02 0.00 0.00 0.00 0.00 0.00 0.00 0.00 0.00 0.00 0.00 0.00 0.00 0.00 0.00 0.00 0.00 0.00 0.00 0.00 0.00 0.00 0.00 0.00 0.00 0.00 0.00 0.00
0.02 0.01 0.05 0.07 0.02 0.01 0.02 0.02 0.03 0.02 0.01 0.01 0.00 0.00 0.00 0.00 0.00 0.00 0.00 0.00 0.00 0.00 0.00 0.00 0.00 0.00 0.00 0.00 0.00 0.00 0.00 0.00 0.00 0.00 0.00 0.00 0.00 0.00 0.00 0.00 0.00 0.00 0.00
0.06 0.06 0.02 0.01 0.00 0.00 0.00 0.00 0.00 0.00 0.00 0.00 0.00 0.00 0.00 0.00 0.00 0.00 0.00 0.00 0.00 0.00 0.00 0.00 0.00 0.00 0.00 0.00 0.00 0.00 0.00 0.00 0.00 0.00 0.00 0.00 0.00 0.00 0.00 0.00 0.00 0.00 0.00
0.00 0.00 0.00 0.00 0.00 0.00 0.00 0.00 0.00 0.00 0.00 0.00 0.00 0.00 0.00 0.00 0.00 0.00 0.00 0.00 0.00 0.00 0.00 0.00 0.00 0.00 0.00 0.00 0.00 0.00 0.00 0.00 0.00 0.00 0.00 0.00 0.00 0.00 0.00 0.00 0.00 0.00 0.00
0.00 0.00 0.00 0.00 0.00 0.00 0.00 0.00 0.00 0.00 0.00 0.00 0.00 0.00 0.00 0.00 0.00 0.00 0.00 0.00 0.00 0.00 0.00 0.00 0.00 0.00 0.00 0.00 0.00 0.00 0.00 0.00 0.00 0.00 0.00 0.00 0.00 0.00 0.00 0.00 0.00 0.00 0.00
0.00 0.00 0.00 0.00 0.00 0.00 0.00 0.00 0.00 0.00 0.00 0.00 0.00 0.00 0.00 0.00 0.00 0.00 0.00 0.00 0.00 0.00 0.00 0.00 0.00 0.00 0.00 0.00 0.00 0.00 0.00 0.00 0.00 0.00 0.00 0.00 0.00 0.00 0.00 0.00 0.00 0.00 0.00
0.00 0.00 0.00 0.00 0.00 0.00 0.00 0.00 0.00 0.00 0.00 0.00 0.00 0.00 0.00 0.00 0.00 0.00 0.00 0.00 0.00 0.00 0.00 0.00 0.00 0.00 0.00 0.00 0.00 0.00 0.01 0.02 0.02 0.04 0.03 0.02 0.01 0.00 0.00 0.00 0.00 0.00 0.00
0.00 0.00 0.00 0.00 0.00 0.00 0.00 0.00 0.00 0.00 0.00 0.00 0.00 0.00 0.00 0.00 0.00 0.00 0.00 0.00 0.00 0.00 0.00 0.00 0.00 0.00 0.00 0.00 0.01 0.01 0.02 0.02 0.05 0.05 0.03 0.00 0.00 0.00 0.00 0.00 0.00 0.00 0.00
0.00 0.00 0.00 0.00 0.00 0.00 0.00 0.00 0.00 0.00 0.00 0.00 0.00 0.00 0.00 0.00 0.00 0.00 0.00 0.00 0.00 0.00 0.00 0.00 0.00 0.00 0.00 0.00 0.02 0.03 0.03 0.02 0.04 0.03 0.02 0.01 0.00 0.00 0.00 0.00 0.00 0.00 0.00
0.00 0.00 0.00 0.00 0.00 0.00 0.00 0.00 0.00 0.00 0.00 0.01 0.01 0.01 0.01 0.01 0.01 0.01 0.01 0.00 0.00 0.00 0.00 0.00 0.00 0.01 0.01 0.06 0.07 0.04 0.01 0.00 0.00 0.00 0.00 0.00 0.00 0.00 0.00 0.00 0.01 0.00 0.00
0.00 0.00 0.00 0.00 0.00 0.00 0.00 0.00 0.00 0.00 0.00 0.01 0.01 0.02 0.02 0.02 0.02 0.01 0.01 0.00 0.00 0.00 0.00 0.01 0.00 0.01 0.02 0.03 0.05 0.06 0.04 0.01 0.00 0.00 0.00 0.00 0.01 0.01 0.01 0.01 0.00 0.00 0.00